Theta_e
352 352 352 352 351 352 351 349 350 350 350 351 351 351 351 351 350 351 351 352 353 355 356 356 355 354 356 357 356 354 353 355 356 357 358 357 356 356 356 357 356 354 355 355 354 354 354 355 357 356 356 355 355 356 356 357 357 356 356 355 355 354 352 352 352 351 349 348 349 350 349 349 349 348 345 344 345 348 350 349 349 348 348 350 350
353 353 353 353 352 352 351 350 349 349 350 351 352 352 352 352 351 351 353 353 354 354 356 356 356 355 355 356 356 354 353 355 356 357 358 357 357 356 356 356 355 354 355 356 354 353 354 356 357 356 356 356 356 357 358 358 357 357 355 354 354 354 352 352 350 350 350 349 348 348 348 349 349 347 344 345 348 350 350 350 349 349 350 351 352
353 353 354 354 353 353 352 351 350 350 349 351 353 353 354 354 353 353 355 356 355 355 355 355 355 355 355 355 355 355 354 355 356 357 358 358 357 357 357 357 356 355 355 355 354 354 354 355 356 356 356 356 357 357 358 357 357 356 354 353 353 353 352 351 350 350 349 349 349 348 348 350 349 345 343 346 349 349 350 349 349 349 350 352 353
355 354 354 355 354 354 353 353 353 352 352 352 354 355 355 355 355 355 356 357 356 356 355 355 355 355 355 355 355 355 355 355 357 357 358 358 358 357 357 357 358 357 356 355 354 354 354 354 355 357 356 355 356 355 356 356 356 355 355 354 354 353 351 349 349 349 349 349 349 347 348 350 348 344 343 345 347 348 348 347 347 348 350 353 355
357 356 356 356 355 355 354 354 355 355 354 354 355 356 356 355 356 356 356 356 356 356 356 355 356 355 355 355 356 356 356 356 357 357 358 358 359 358 358 358 358 357 357 357 356 355 355 354 355 356 356 356 355 355 355 355 355 355 354 353 353 352 351 349 348 348 349 349 349 348 348 350 348 344 342 345 347 346 346 345 347 349 351 354 355
358 357 357 357 356 355 355 355 356 357 356 356 356 357 356 356 356 356 356 356 355 356 356 355 355 356 355 355 355 356 355 356 356 356 357 357 357 358 357 357 358 358 358 358 358 358 357 356 355 356 357 357 356 356 356 355 355 355 353 352 351 351 350 349 347 348 348 349 349 349 349 349 348 345 344 346 347 346 346 347 348 351 354 355 354
359 359 359 359 358 357 356 356 357 356 356 356 356 357 357 356 356 356 356 356 355 355 356 356 355 355 355 355 355 355 354 354 355 355 356 355 356 355 355 356 358 358 358 358 358 358 358 357 356 356 357 357 356 356 356 355 355 354 352 351 350 349 350 348 347 348 349 350 349 350 349 349 348 346 346 346 346 347 349 352 353 353 355 356 354
358 359 359 359 359 358 357 357 357 356 356 355 355 355 356 356 356 356 356 355 355 355 354 354 355 355 355 355 354 354 353 353 354 355 355 355 354 353 353 354 356 357 358 358 358 357 357 357 356 356 357 357 356 356 355 355 355 353 353 352 349 348 348 349 349 349 349 350 349 349 349 348 347 347 348 349 348 350 353 356 356 356 356 355 353
357 358 358 358 358 358 357 357 357 356 356 355 354 354 354 355 355 355 356 355 355 354 353 353 354 354 355 355 354 354 353 353 353 353 354 354 352 351 352 353 354 356 357 358 357 357 356 356 357 356 356 356 356 355 353 353 352 351 351 352 350 348 348 349 350 349 348 349 348 348 348 348 349 351 353 353 353 354 356 357 358 358 356 354 351
356 356 357 357 357 357 356 356 355 355 355 354 353 353 353 354 354 354 355 355 354 354 353 353 353 354 354 354 353 354 354 354 353 353 353 354 352 350 350 351 353 355 356 357 357 357 357 356 356 356 355 355 354 352 352 352 350 349 349 349 348 348 348 349 349 348 348 349 348 348 348 350 353 355 356 356 356 357 358 358 357 357 354 351 348
354 354 355 354 355 355 354 354 354 353 353 352 352 351 351 352 352 353 354 354 354 354 352 352 353 353 354 354 353 354 354 354 354 352 353 353 352 350 350 350 351 353 355 356 356 357 357 355 355 355 355 354 353 352 352 351 350 350 349 348 348 348 348 349 349 350 349 348 348 350 352 354 356 356 357 358 358 358 357 357 356 353 351 350 349
352 352 352 351 352 353 352 353 353 351 351 351 350 350 351 351 351 352 353 353 353 352 351 351 352 352 353 353 353 353 353 353 353 352 353 353 352 351 351 351 351 352 353 354 355 356 357 355 354 354 353 354 353 352 351 350 350 350 349 348 349 349 350 351 351 350 349 349 352 354 356 357 357 356 357 358 357 357 356 355 353 350 348 348 348
350 349 347 347 350 351 351 351 351 351 351 350 349 350 351 352 352 351 352 353 352 351 350 351 352 352 352 352 352 352 352 352 353 353 354 353 352 352 352 351 353 353 353 354 354 355 355 355 354 354 353 352 351 350 350 350 350 349 349 349 348 349 351 351 350 351 352 354 356 356 357 357 357 358 358 357 355 354 352 351 348 346 345 346 349
348 346 346 347 350 350 350 350 351 351 351 350 350 351 351 351 351 353 354 354 352 351 350 351 351 351 351 351 350 351 351 352 352 353 353 353 352 352 351 351 352 352 353 354 353 353 354 353 352 354 353 351 349 350 350 350 351 350 349 349 348 349 351 352 353 355 356 358 357 357 357 358 358 358 356 355 353 351 349 348 345 346 346 348 350
348 347 348 349 351 351 351 351 350 351 351 351 352 352 352 353 354 354 355 355 354 353 351 351 350 350 349 349 349 349 350 351 351 351 351 351 350 351 351 350 348 348 350 352 353 353 353 351 351 352 352 350 349 350 350 350 350 350 349 349 349 350 352 355 357 358 358 358 357 357 358 358 356 355 353 352 351 349 348 347 346 347 347 346 346
347 348 349 350 351 351 351 352 352 352 351 351 351 352 353 353 353 354 354 355 355 354 352 351 350 348 348 348 348 347 348 348 349 349 349 349 349 350 350 349 347 346 347 348 350 351 352 351 350 350 351 350 349 349 349 349 349 348 348 349 350 352 354 356 357 358 358 357 357 356 355 354 353 351 349 349 348 347 347 346 345 345 343 343 345
344 345 345 345 347 348 349 350 351 351 351 348 348 349 350 349 348 350 352 353 353 353 353 352 351 349 349 349 349 348 348 348 348 348 348 349 349 349 349 348 347 347 346 347 347 348 349 351 350 349 350 350 349 349 350 348 348 348 348 350 352 354 356 357 357 357 356 354 353 352 350 350 350 348 345 344 344 344 343 342 341 340 340 343 344
340 341 341 341 342 343 344 345 346 346 346 345 345 346 347 346 347 348 349 349 349 350 351 351 350 349 349 349 349 348 348 347 347 348 348 349 348 349 349 347 347 347 346 346 345 344 346 349 350 350 350 350 350 350 349 349 349 349 350 351 353 353 355 355 354 353 353 351 349 347 347 348 347 343 339 339 339 339 338 337 337 336 337 340 340
338 338 338 338 338 339 340 341 341 341 342 343 344 345 346 346 347 348 348 348 348 348 348 348 348 348 347 348 349 347 345 345 346 347 347 348 348 349 349 348 349 349 347 346 347 348 350 351 351 350 349 350 351 350 349 350 351 351 351 351 351 352 352 351 350 350 349 346 343 344 345 344 340 336 335 335 334 334 333 333 333 333 333 333 332
335 335 335 336 336 337 337 337 337 337 338 339 341 343 344 345 345 345 346 346 346 346 345 345 345 345 344 344 345 343 342 345 346 345 345 347 347 348 349 350 351 352 350 350 352 352 352 352 351 350 350 351 351 350 351 351 351 350 351 350 350 349 347 347 347 344 340 339 342 344 343 337 333 331 331 331 331 331 331 331 330 330 330 329 328
330 333 334 336 336 337 337 337 338 339 339 338 340 341 343 344 344 344 345 345 344 343 343 344 343 342 340 339 339 339 340 343 343 341 341 343 344 346 348 347 347 349 350 352 353 352 352 351 350 349 349 349 348 348 347 347 348 350 349 347 343 339 337 338 335 331 334 341 344 341 336 332 330 330 329 329 329 329 329 329 328 327 328 328 327
329 330 333 335 336 337 338 338 339 340 340 341 341 342 343 344 344 344 344 343 342 342 342 341 339 338 337 336 335 336 336 337 338 337 337 339 340 341 342 339 340 343 345 346 348 348 348 349 348 347 348 347 346 344 342 342 343 341 339 335 329 324 324 325 323 328 340 344 338 332 331 330 329 329 327 328 328 328 327 327 327 327 326 326 327
324 325 328 330 332 333 335 336 339 340 340 341 341 341 342 342 342 342 342 341 341 340 340 340 338 335 333 332 331 331 331 332 333 333 333 334 335 337 336 335 335 336 337 340 341 340 339 341 343 344 345 345 342 340 338 337 336 332 329 324 319 319 322 323 326 337 344 339 330 329 331 329 328 328 327 327 326 326 326 326 325 326 326 325 326
323 323 324 325 327 329 331 334 337 338 338 338 338 339 340 340 340 340 339 339 338 337 336 336 334 331 329 329 329 330 330 331 331 331 331 331 332 333 332 331 331 330 331 333 334 333 332 334 336 337 337 337 336 333 329 326 325 326 325 321 320 326 331 332 336 342 340 332 328 329 328 326 327 327 325 325 325 324 325 325 325 325 325 324 325
323 322 323 324 325 328 331 332 332 331 331 333 335 336 336 336 337 339 340 338 335 331 330 330 329 329 329 330 329 328 327 327 327 327 326 326 326 327 326 324 325 325 324 324 324 324 323 326 330 333 334 334 333 329 323 319 317 318 319 321 327 336 339 339 341 340 333 328 328 327 326 326 326 325 325 325 324 323 324 325 325 324 324 324 323
324 323 324 325 325 326 327 326 324 321 321 323 326 329 331 333 334 336 339 338 333 328 328 329 329 330 330 329 325 322 322 322 322 322 321 321 321 321 320 319 320 320 319 318 318 316 315 316 321 327 329 330 330 326 322 322 322 320 320 322 327 334 339 340 339 334 328 326 327 326 325 325 324 323 323 323 322 323 323 323 323 323 323 323 322
324 325 324 324 325 325 324 322 320 318 316 316 316 318 322 327 330 332 335 336 333 331 331 331 331 332 331 328 324 321 320 321 321 321 321 320 318 317 316 315 316 316 316 315 314 314 317 320 322 324 325 327 328 324 322 327 332 330 327 324 325 331 337 339 336 332 328 328 327 325 323 322 321 322 322 322 322 322 322 322 321 321 320 321 320
324 325 324 324 324 324 322 321 320 320 319 318 316 313 313 316 321 325 329 333 334 333 332 331 331 331 329 327 326 325 323 322 322 321 319 317 315 313 312 312 313 314 315 313 313 316 323 326 327 327 327 328 328 325 325 331 335 335 332 331 331 333 335 334 332 331 330 327 325 323 321 321 322 322 322 321 321 321 320 319 319 318 318 318 317
324 325 325 324 323 322 322 321 319 319 319 319 317 315 313 312 312 316 322 327 330 330 330 329 327 325 324 323 323 323 322 320 319 317 315 313 312 312 311 312 313 314 314 314 316 321 326 326 326 328 329 331 331 331 332 335 337 336 334 333 333 332 331 329 328 327 325 323 322 321 320 321 322 322 321 320 319 319 318 318 317 317 317 316 315
325 326 326 325 324 325 324 323 321 320 320 320 319 318 317 315 314 314 316 319 321 322 321 320 319 318 317 317 316 316 316 315 314 313 313 313 313 313 313 313 313 314 315 317 320 323 325 326 326 328 329 331 332 332 333 333 333 332 331 330 329 328 326 325 324 322 321 321 320 320 320 321 322 321 320 319 318 318 317 317 316 316 315 314 314
323 324 324 324 324 324 325 325 324 323 323 323 322 321 320 319 318 317 315 315 316 316 316 316 316 315 315 315 315 315 315 315 314 313 312 312 312 313 313 313 314 316 318 320 323 325 325 324 325 326 327 328 328 328 328 328 327 327 327 326 325 323 322 322 321 320 320 320 320 320 321 321 321 320 319 318 318 317 316 315 315 315 314 313 314
318 320 320 320 319 320 323 325 325 324 324 324 323 322 322 321 320 319 318 318 317 317 317 317 317 316 315 315 316 316 317 317 316 316 315 315 315 315 315 317 320 322 323 324 324 324 324 323 323 324 324 325 325 324 325 325 324 324 323 322 321 321 320 320 320 320 320 320 320 320 321 320 320 319 317 317 316 315 314 314 314 313 313 313 313
319 319 321 321 320 320 321 322 323 323 323 323 323 323 322 322 321 320 319 319 318 317 318 318 317 316 316 315 315 315 316 317 317 318 319 319 319 320 321 322 324 324 324 325 324 323 322 322 321 321 322 322 322 322 322 322 322 321 320 320 319 319 319 319 319 319 319 319 319 319 319 318 318 317 316 315 314 313 313 313 313 313 312 312 312
322 322 323 323 323 322 321 321 322 322 322 323 324 324 323 323 322 321 320 319 318 318 318 317 317 316 315 315 314 313 313 314 315 316 318 320 321 322 323 324 324 324 324 324 322 321 320 320 319 319 320 320 320 320 320 320 320 320 319 319 319 318 318 318 318 318 317 317 317 317 316 315 315 315 314 314 313 313 312 312 311 311 311 310 310
320 322 323 323 322 322 321 320 320 321 321 322 323 323 323 323 324 324 322 320 319 318 318 317 317 316 314 315 315 314 313 313 314 314 316 318 320 321 322 323 322 322 322 321 320 319 319 318 318 318 318 318 318 318 319 319 319 318 318 318 317 317 317 317 316 316 315 315 315 314 314 314 313 313 313 313 312 311 310 310 309 309 308 308 308
316 320 323 322 321 320 319 318 316 315 317 319 320 320 321 321 322 323 323 322 321 320 318 318 318 317 315 315 315 314 312 313 313 313 314 316 317 319 320 320 319 318 318 317 317 317 317 316 316 316 317 317 317 317 317 317 317 316 316 316 316 315 315 315 314 314 314 313 313 312 312 312 311 311 311 311 310 309 308 308 307 307 307 307 307
316 320 322 321 321 320 319 317 316 315 315 317 319 320 321 320 319 320 321 322 322 321 320 319 318 317 316 315 315 313 312 312 313 313 313 314 315 317 318 317 316 315 314 314 314 314 314 314 314 314 314 314 314 314 315 315 315 315 315 315 314 314 313 312 312 312 311 311 310 310 309 309 309 309 308 308 307 306 306 305 305 305 305 305 305
317 320 320 320 320 321 319 318 318 318 318 319 319 320 320 320 318 319 320 321 321 321 321 320 318 317 316 315 314 312 311 312 312 312 313 314 314 315 315 314 314 313 312 311 312 312 311 311 311 312 312 312 312 312 312 312 312 313 313 313 313 312 311 311 310 310 309 308 307 307 306 306 306 306 306 305 304 304 303 303 303 303 303 303 303
316 318 319 319 319 320 320 319 318 318 319 319 319 319 320 320 318 317 318 319 320 320 321 320 318 316 315 313 312 311 311 312 312 312 312 312 313 313 313 312 312 311 310 310 310 310 309 309 309 309 309 309 309 309 309 310 310 310 310 311 310 310 309 309 308 307 306 306 305 304 304 303 303 303 303 303 302 301 301 301 301 301 301 301 301
316 316 318 319 319 319 319 319 318 318 318 318 317 318 319 319 317 316 317 317 318 319 320 320 318 315 313 311 311 311 312 311 311 311 311 311 311 311 311 311 310 309 309 308 308 308 308 308 308 308 308 307 307 308 308 308 308 308 308 308 307 307 306 306 305 304 304 303 302 302 301 301 300 300 300 300 300 299 299 299 299 299 299 299 299
317 317 318 318 318 318 318 317 316 317 317 317 317 316 317 317 316 316 316 316 317 319 320 319 316 313 311 311 311 312 311 311 310 310 310 309 309 309 309 309 308 308 308 307 307 307 307 306 306 306 306 306 306 306 306 306 306 306 306 306 305 304 304 303 303 302 302 301 301 300 300 299 299 299 298 298 298 297 297 297 297 297 298 298 298
317 317 318 318 318 318 317 315 313 313 314 315 316 315 315 315 315 315 315 315 316 318 319 316 313 311 311 311 311 311 310 310 309 309 308 308 308 308 307 307 307 306 306 306 306 305 305 305 305 304 304 304 304 304 305 304 304 304 304 304 303 302 302 301 300 300 300 299 299 299 298 298 298 297 297 296 296 295 295 295 296 296 297 297 298
318 318 318 318 318 317 317 316 314 312 312 314 315 314 314 314 315 315 314 314 315 316 316 314 311 310 310 310 310 309 309 309 308 308 307 307 307 306 306 306 305 305 305 305 305 304 304 304 304 303 303 303 303 303 303 303 303 303 302 302 301 301 300 299 299 298 298 298 297 297 297 297 296 296 296 295 295 295 295 295 295 296 297 297 298
319 319 319 319 318 317 317 317 315 314 313 314 315 315 314 313 313 313 313 313 314 314 314 312 310 310 309 309 308 308 308 307 307 307 306 306 305 305 305 304 304 304 304 304 303 303 303 303 303 302 302 301 301 301 301 301 301 301 301 300 300 300 299 298 298 297 297 297 296 296 296 296 295 295 295 295 295 295 295 295 296 296 297 297 297
319 319 319 318 317 317 317 317 316 315 315 315 315 314 313 313 313 312 312 312 312 313 313 311 309 309 309 308 307 307 307 306 306 305 305 305 304 304 303 303 303 303 303 303 302 302 302 301 301 301 301 300 300 300 300 300 300 300 300 299 299 298 298 297 297 296 296 296 296 295 295 295 294 294 294 294 294 294 295 295 296 296 297 297 297
319 318 318 317 316 316 315 315 314 315 315 316 315 313 312 312 312 312 311 311 311 312 312 311 309 308 307 307 306 306 306 305 305 304 304 303 303 302 302 302 302 301 301 301 301 301 300 300 300 300 299 299 299 299 299 299 299 298 298 298 297 297 297 296 296 296 295 295 295 294 294 294 294 294 294 294 294 294 295 296 296 296 297 297 298
319 317 317 316 315 314 314 313 313 314 314 313 312 312 312 311 311 311 310 310 310 310 310 309 307 306 306 306 305 305 304 304 303 303 302 302 301 301 301 301 300 300 300 300 299 299 299 299 298 298 298 298 298 298 298 298 297 297 297 297 296 296 296 295 295 295 294 294 294 294 293 293 293 293 294 294 294 295 296 296 296 296 297 298 299
316 315 315 314 313 312 312 312 312 312 312 311 311 310 310 310 310 309 308 308 308 307 307 306 305 305 305 304 304 303 303 302 302 301 301 301 300 300 299 299 299 299 299 298 298 298 297 297 297 297 297 297 297 297 297 297 296 296 296 296 296 295 295 295 294 294 294 294 293 293 293 293 293 293 294 295 295 296 296 296 295 296 297 298 299
313 312 311 310 310 310 310 310 311 311 311 311 310 309 309 309 309 308 307 306 306 306 305 305 304 304 303 303 302 302 302 301 301 300 300 299 299 299 299 298 298 298 298 297 297 297 296 296 296 296 296 296 296 296 296 296 296 296 296 295 295 295 294 294 294 294 293 293 293 293 292 293 293 294 295 296 296 296 296 295 295 297 298 299 299
310 310 309 309 309 309 308 308 309 310 310 310 310 309 308 307 307 306 305 305 305 304 304 303 303 302 302 301 301 301 300 300 300 299 299 298 298 298 298 297 297 297 297 297 296 296 296 296 296 296 296 295 296 296 295 295 295 295 295 295 295 294 294 294 293 293 293 293 292 292 293 293 294 295 296 297 297 296 295 295 296 297 298 299 299
308 308 308 308 308 308 307 307 307 308 309 309 309 308 307 306 305 305 304 303 303 302 302 301 301 301 301 300 300 300 299 299 299 298 298 298 297 297 297 297 296 296 296 296 296 295 295 295 295 295 295 295 295 294 294 294 294 295 295 294 294 294 293 293 293 293 292 292 292 292 293 294 295 296 297 297 296 295 295 296 297 298 298 299 299
Wind_Speed
32 32 32 31 30 30 30 30 31 29 25 22 22 22 22 22 22 21 20 20 20 21 21 20 19 19 18 18 18 17 18 17 16 15 16 15 15 15 14 14 14 14 13 12 11 11 12 12 10 9 8 9 9 9 8 8 9 10 10 11 12 11 10 9 8 10 14 13 12 11 10 12 12 13 15 15 15 14 13 13 16 19 21 21 22
32 32 31 31 30 30 29 29 30 30 27 24 23 22 22 21 21 20 20 20 19 20 21 20 19 19 19 19 18 18 18 17 16 16 16 16 15 15 15 15 15 14 14 13 12 11 12 13 11 9 8 9 9 9 10 10 11 12 12 12 14 13 11 11 10 10 13 15 14 12 11 11 13 14 14 14 13 13 14 16 19 21 22 22 23
32 32 30 30 29 29 28 28 28 29 28 26 24 23 22 21 20 20 20 19 19 20 20 20 19 19 19 19 19 19 19 18 17 17 18 17 16 15 15 15 15 15 15 14 12 11 12 13 13 10 8 9 10 11 11 12 12 13 14 14 14 14 13 13 12 11 13 15 14 13 12 12 13 13 13 12 12 13 15 18 20 22 22 22 24
30 29 28 28 28 27 27 26 26 27 27 27 26 25 23 22 21 21 21 21 20 20 20 20 20 20 20 20 20 21 20 19 19 18 19 19 19 17 16 16 16 16 16 14 13 12 13 13 14 13 11 12 13 13 12 13 13 14 15 16 16 16 15 14 13 13 13 13 13 14 13 12 13 13 13 12 13 14 16 19 21 21 21 22 24
27 27 27 27 26 26 26 25 25 25 26 26 26 25 24 23 23 23 23 23 22 22 21 21 21 21 21 21 22 22 22 21 20 20 20 21 20 19 19 18 18 17 17 15 14 13 13 13 14 14 14 14 14 14 14 14 14 14 15 15 15 15 16 15 14 14 14 14 15 15 13 13 14 15 14 13 15 17 18 19 19 20 22 23 25
23 24 25 25 25 25 25 25 25 25 25 26 26 26 25 25 25 25 25 24 24 23 23 22 22 22 23 23 23 23 23 23 22 22 22 22 22 21 21 21 20 20 19 17 15 14 14 13 14 14 14 15 15 15 15 15 15 15 15 14 14 14 15 14 14 14 14 15 15 15 14 14 15 16 14 14 17 18 18 19 20 21 22 24 26
21 22 22 23 23 23 23 22 21 21 22 23 24 25 26 26 27 26 25 25 25 24 24 24 24 24 25 24 24 24 24 24 24 24 24 24 24 23 22 21 21 21 21 19 17 16 15 14 14 15 15 15 15 16 17 17 17 18 17 16 15 15 14 13 13 14 14 13 13 14 14 14 15 15 16 16 16 15 16 19 21 23 23 25 27
23 22 22 22 21 20 19 20 21 20 20 20 19 20 22 25 27 27 26 25 26 26 26 26 26 26 26 25 25 25 25 25 25 25 25 25 25 24 23 23 22 21 21 21 20 18 17 16 16 16 17 17 17 18 18 18 19 20 20 18 17 16 15 13 13 14 13 12 13 13 13 14 15 16 17 16 15 15 15 16 18 22 24 26 26
24 23 23 22 21 20 20 20 22 23 22 23 22 20 18 19 23 26 27 26 26 26 27 27 27 27 27 27 27 26 26 26 25 25 26 25 24 23 23 24 23 22 22 22 22 21 20 19 18 17 17 17 17 17 17 17 17 18 19 19 18 16 15 13 14 14 13 12 13 12 12 14 15 16 16 15 14 14 14 14 17 20 24 27 26
24 22 22 22 21 21 21 20 20 21 22 23 24 23 21 19 19 22 26 28 27 26 26 27 28 28 29 29 28 27 26 27 26 25 26 26 24 22 23 24 25 24 22 21 21 22 21 21 20 18 17 16 16 15 16 16 16 16 16 16 16 15 14 14 15 15 14 13 13 11 11 13 15 14 14 14 12 13 14 15 18 21 23 25 24
24 23 22 21 21 21 20 19 20 20 20 21 22 23 23 22 21 21 23 26 28 28 27 28 29 30 30 30 29 27 27 27 27 26 25 25 24 23 23 24 25 25 24 22 21 22 22 21 21 20 19 18 18 17 17 16 15 14 14 15 16 16 17 17 17 17 16 14 12 10 11 14 15 13 13 13 12 13 14 15 17 19 19 18 18
19 19 18 18 19 21 22 21 21 20 20 19 19 19 20 21 21 21 20 22 25 27 27 28 29 30 31 31 29 27 26 26 26 25 24 24 24 23 23 24 25 25 24 24 23 23 22 22 21 20 20 20 20 18 17 16 15 13 12 13 13 14 14 15 15 15 14 12 11 11 12 13 14 13 13 12 12 13 14 16 17 17 16 15 16
14 14 14 16 19 21 23 22 21 20 21 21 19 16 17 17 18 17 16 16 18 19 20 21 22 23 24 25 25 25 24 24 24 24 25 24 24 23 23 23 24 25 25 24 24 23 23 23 22 21 20 20 18 17 15 14 13 12 11 10 9 9 9 10 12 13 12 11 11 12 11 12 13 13 12 12 13 15 16 18 18 17 15 15 15
11 11 13 16 19 20 20 20 20 21 22 21 20 19 19 18 16 15 12 11 11 13 15 17 19 20 19 20 21 23 24 24 23 24 24 24 23 23 23 23 24 25 26 26 25 23 22 22 22 23 22 20 17 16 14 13 12 11 10 10 8 8 9 9 10 11 10 10 11 11 11 11 12 12 11 12 14 17 18 19 18 15 12 11 10
13 14 15 16 16 16 16 17 21 24 23 20 17 17 16 14 12 11 11 11 12 12 14 16 18 19 18 17 18 20 21 22 22 23 24 23 23 23 23 22 22 22 25 26 26 26 24 22 22 25 25 20 16 15 14 12 12 12 11 11 10 10 10 10 11 11 10 10 11 10 10 9 9 11 12 14 16 17 17 16 12 8 7 7 7
15 14 13 11 10 10 11 14 18 21 20 17 14 12 10 8 7 7 10 12 11 10 10 12 13 14 14 15 16 15 16 19 22 22 23 22 22 23 23 21 19 20 23 25 25 24 25 26 25 25 24 22 18 15 15 13 13 13 12 12 11 10 11 11 11 11 11 10 10 10 8 8 9 10 11 11 10 10 8 6 4 5 7 7 8
13 11 7 5 5 5 6 8 11 13 13 10 8 9 9 8 8 11 13 13 11 8 8 10 12 13 14 14 15 16 17 20 21 21 20 20 20 21 21 18 18 20 22 24 24 23 24 27 26 24 24 24 20 16 16 14 13 13 12 11 11 11 11 11 11 11 10 9 9 8 9 9 9 7 5 3 4 4 4 5 7 8 9 8 8
14 12 10 7 5 4 5 5 6 7 7 3 3 6 8 9 12 15 16 14 12 10 10 9 10 11 12 12 16 18 18 18 18 17 17 17 17 18 18 16 16 18 20 22 24 24 24 25 26 25 25 23 19 16 15 13 12 12 11 11 11 11 11 11 11 11 10 8 7 7 8 7 4 2 1 3 4 5 6 7 7 8 10 10 9
15 14 13 11 9 6 4 4 3 2 2 1 1 3 5 6 9 11 12 12 10 8 7 6 6 8 9 11 16 17 14 13 13 14 14 14 15 15 15 15 16 18 19 21 22 22 21 20 20 21 20 18 16 14 13 12 11 11 10 10 11 11 11 11 11 10 9 8 6 4 2 3 5 5 4 4 5 6 7 8 7 8 10 11 11
13 13 11 10 10 9 6 5 5 5 3 3 4 4 4 5 5 6 6 8 8 6 6 6 7 8 7 8 11 12 10 9 11 11 11 11 12 12 13 14 14 16 16 17 18 19 19 18 16 16 15 14 13 12 11 11 11 11 10 10 11 11 11 10 9 8 7 4 3 4 7 8 6 5 5 6 7 7 8 8 9 10 10 10 12
14 13 11 10 10 9 7 7 6 6 5 4 6 5 3 2 1 2 2 4 6 6 7 8 9 8 7 6 5 5 5 6 8 8 7 8 10 10 10 10 11 14 15 14 15 17 18 17 16 14 14 13 12 11 10 10 10 10 10 10 11 10 9 8 7 6 3 3 6 8 9 8 6 6 7 7 8 8 8 8 10 10 10 10 10
13 13 12 10 10 9 8 7 7 7 6 6 7 8 6 4 2 1 2 3 5 6 8 9 8 7 6 5 4 3 3 3 4 4 4 4 5 6 5 5 7 9 9 10 13 16 18 18 18 16 14 13 12 11 10 9 10 10 10 10 9 8 7 7 6 5 6 8 10 11 9 7 6 7 7 8 8 8 8 9 9 9 9 9 9
11 12 13 12 11 10 8 7 7 8 8 8 9 10 9 7 5 5 5 6 7 8 7 7 7 8 8 7 7 6 5 4 1 2 4 4 4 4 5 6 8 7 3 2 6 8 10 15 18 17 16 15 13 11 9 9 9 10 10 9 8 7 7 7 6 7 9 10 11 10 9 7 7 7 7 7 7 8 8 8 8 7 7 8 9
10 12 13 13 12 11 10 9 9 9 9 9 10 11 10 8 7 7 8 9 9 9 7 6 7 9 10 10 9 8 8 7 6 6 7 7 6 6 7 8 8 8 7 3 1 1 3 6 9 11 12 14 13 11 9 8 9 10 10 9 8 8 8 8 9 11 12 12 11 10 9 8 7 7 7 7 6 6 6 6 6 6 5 6 8
10 11 12 12 12 12 13 13 13 13 12 11 11 11 10 8 8 7 7 8 8 8 8 8 9 10 10 9 9 9 8 8 8 7 8 8 8 8 8 9 9 9 8 7 6 7 8 7 7 8 10 12 13 13 10 7 7 7 7 8 8 8 8 9 11 14 15 14 12 11 10 8 8 7 6 5 5 5 6 6 5 5 4 4 6
9 10 10 11 11 11 13 14 14 14 14 14 13 12 11 10 10 10 9 10 10 10 10 10 9 8 8 8 8 8 7 7 7 7 7 8 8 8 8 8 8 7 7 7 7 7 7 7 7 8 9 10 13 12 8 5 7 8 9 9 9 9 9 11 15 17 17 15 13 12 10 7 6 5 4 4 5 6 8 7 7 8 7 6 6
9 9 9 9 9 10 11 12 13 13 13 13 13 13 11 10 11 11 11 11 11 11 10 8 6 5 5 6 6 6 6 7 7 7 8 9 10 10 10 9 9 8 8 8 7 6 6 6 6 6 7 7 8 8 5 5 8 10 10 9 9 10 13 15 18 18 17 15 13 11 8 6 4 4 4 5 7 8 9 8 9 11 10 9 10
8 8 7 7 7 8 9 10 9 9 9 9 10 11 11 9 10 11 10 9 9 9 9 7 6 4 4 3 3 3 5 7 8 9 10 11 12 12 12 11 11 10 10 9 8 7 6 4 2 3 4 5 6 7 7 7 8 9 10 12 13 15 18 19 18 16 15 13 12 10 8 7 6 6 6 6 8 8 8 9 10 10 10 10 13
5 5 5 5 6 6 7 7 7 7 7 8 9 11 11 10 10 10 10 9 8 8 7 7 6 4 3 2 3 4 6 8 9 10 11 12 12 12 12 12 12 11 10 9 7 6 7 6 6 4 2 1 4 8 10 11 12 13 15 17 18 19 19 18 16 15 13 12 12 11 10 9 8 7 7 7 8 7 6 7 8 8 9 11 14
4 4 4 4 5 5 5 6 7 7 7 8 9 10 11 11 11 11 11 10 8 7 7 7 6 4 3 3 4 6 7 8 9 10 10 9 9 10 10 10 10 9 8 7 7 7 9 11 12 12 11 10 10 12 13 15 17 18 19 20 20 20 18 16 15 14 13 12 12 12 10 9 8 8 8 8 7 6 6 6 7 7 9 11 13
4 4 4 4 4 3 3 3 4 5 5 6 7 8 10 10 11 12 12 11 10 9 8 8 8 7 7 7 8 8 9 9 9 8 7 6 6 7 8 8 7 7 7 7 8 9 11 15 17 17 17 18 17 17 17 18 19 20 20 20 20 19 18 16 14 13 13 12 12 10 8 8 8 8 8 8 8 8 7 7 7 8 9 10 11
0 1 2 2 1 0 0 0 1 2 3 3 4 5 6 7 8 9 10 10 10 10 9 9 9 9 10 11 12 12 12 12 11 11 9 8 7 7 7 7 8 8 7 8 10 12 14 17 19 19 20 21 20 19 19 19 19 19 19 19 18 16 16 14 13 12 12 11 9 8 8 8 9 9 9 8 8 8 8 8 8 8 8 9 10
1 2 2 2 2 2 2 2 2 2 2 2 3 3 3 3 4 5 6 7 7 8 8 8 8 8 9 10 12 13 14 13 13 13 12 10 10 9 9 9 10 9 8 10 13 16 17 19 20 20 21 21 20 20 20 19 19 18 18 17 15 14 13 12 11 11 11 10 9 9 10 9 9 9 9 9 8 8 8 8 8 8 9 9 10
2 2 2 3 3 3 3 3 3 2 1 1 3 4 3 2 2 3 4 5 5 5 5 6 6 6 6 7 9 12 12 12 13 14 13 12 11 10 10 12 13 13 12 14 16 18 19 20 20 20 20 20 20 19 19 18 17 16 16 15 14 14 12 11 11 12 12 11 11 11 10 10 9 9 9 8 8 8 9 9 9 9 10 10 10
4 3 3 3 4 3 2 3 4 4 3 2 2 2 2 2 3 5 6 7 6 6 5 4 4 3 3 4 6 9 10 10 12 13 12 11 10 8 9 12 15 16 15 16 17 18 19 20 20 20 20 20 19 18 18 17 16 16 15 15 14 13 12 12 12 12 11 11 11 10 10 9 9 8 8 8 8 9 10 10 10 10 10 10 10
6 5 4 4 4 4 4 4 4 4 4 4 4 3 2 1 1 3 5 6 8 9 9 7 5 4 2 1 4 7 9 9 10 11 11 10 8 6 7 12 16 17 17 17 17 18 18 18 19 19 18 18 17 16 16 16 15 14 14 13 13 12 12 12 11 11 10 10 10 10 9 9 9 8 8 8 9 9 9 10 10 10 10 10 10
6 6 6 5 5 5 5 4 2 1 2 4 5 4 2 1 1 2 3 4 6 9 10 9 7 6 4 1 4 6 7 8 9 9 8 8 6 5 9 14 16 17 18 17 16 16 17 16 16 16 15 15 14 14 13 13 12 12 11 11 11 11 11 11 10 10 10 10 10 9 9 9 9 8 8 8 9 9 9 9 10 10 10 10 10
9 8 7 7 6 7 7 6 4 2 2 3 4 4 3 2 2 3 4 5 5 7 9 11 10 7 4 2 2 3 4 4 5 5 6 6 6 8 11 14 15 16 17 16 15 15 15 14 14 13 13 12 12 11 11 10 10 9 8 8 9 9 9 9 9 9 9 9 9 9 9 10 10 10 9 10 10 10 10 11 11 12 12 12 12
12 12 10 9 8 8 8 8 8 7 6 6 5 5 5 4 3 3 4 5 5 6 8 11 11 8 4 3 2 0 1 2 4 5 6 8 9 10 11 13 14 15 15 14 13 13 13 13 12 12 11 11 10 10 9 8 8 7 6 6 6 7 7 7 7 8 8 8 9 9 9 10 11 11 11 11 11 12 12 12 13 13 13 13 14
13 13 12 10 10 10 10 10 10 10 10 9 7 6 5 5 4 4 4 4 4 5 7 10 11 7 4 2 2 2 3 6 8 8 9 10 10 10 10 11 12 12 12 12 11 11 11 11 10 10 10 9 9 9 8 7 6 6 5 5 6 6 7 7 7 8 8 9 9 10 10 11 12 12 12 12 12 13 13 13 13 13 13 13 14
14 13 12 10 9 10 11 12 12 12 11 10 8 6 5 5 4 4 4 4 4 5 8 10 10 7 4 3 3 3 5 7 9 10 10 10 10 10 10 10 10 10 10 10 9 9 8 8 8 8 8 8 7 7 6 5 5 4 4 5 5 6 6 7 7 8 8 9 10 11 12 13 14 16 16 15 14 14 14 13 13 13 13 13 13
15 15 14 13 11 11 12 13 13 12 11 11 10 8 7 7 6 4 4 4 5 6 9 10 9 6 4 4 4 5 6 8 9 10 10 10 10 9 9 9 8 8 8 7 7 6 6 6 7 7 7 7 6 6 5 5 4 4 4 5 5 6 7 7 8 8 8 9 10 12 13 15 16 17 17 16 14 13 13 13 13 13 13 13 13
16 16 15 16 15 15 14 14 13 11 11 12 12 11 10 9 8 7 5 5 6 8 9 9 8 6 6 5 6 6 6 8 9 9 10 10 9 9 8 8 7 7 6 5 5 5 5 6 6 6 6 6 6 5 5 4 4 4 4 5 6 7 7 8 8 9 9 11 12 13 15 16 17 17 17 15 14 14 14 14 13 13 13 13 13
16 16 16 16 17 16 14 13 13 12 12 12 13 13 12 11 10 8 7 8 9 10 10 10 9 8 8 7 7 7 7 7 8 8 9 9 8 8 8 7 6 5 4 4 3 3 4 5 5 6 6 5 5 4 4 3 3 3 3 4 5 6 6 7 8 9 10 12 13 15 16 17 17 17 16 15 15 15 14 13 14 14 14 14 14
14 15 16 16 15 14 12 12 12 12 11 12 13 14 12 11 11 9 8 9 10 12 12 12 11 9 9 9 9 8 8 8 8 8 8 8 7 7 7 6 5 4 3 2 2 2 3 4 4 4 4 3 3 2 2 2 2 2 3 4 4 5 6 7 7 8 10 12 13 15 16 17 17 16 15 14 14 13 13 13 14 14 14 13 13
12 13 13 13 12 11 10 10 9 8 8 10 13 13 11 10 10 9 10 11 12 13 15 14 12 11 11 11 11 10 10 10 9 9 8 8 7 6 5 4 3 2 2 2 2 2 3 3 3 4 3 2 1 1 2 2 3 3 3 4 4 5 5 6 7 8 10 12 14 15 16 17 17 16 15 14 13 13 13 14 14 13 12 11 10
10 10 11 11 11 9 8 9 9 8 6 6 8 10 10 10 11 11 12 13 13 14 15 15 14 12 12 12 12 12 11 11 10 9 9 8 7 6 5 3 2 2 1 2 2 2 3 3 3 3 2 1 1 2 3 2 3 3 3 3 4 4 5 6 8 10 12 14 15 17 17 18 17 16 14 13 13 13 15 15 13 11 9 8 8
8 8 8 8 8 8 8 8 9 10 9 8 8 9 9 10 11 12 13 14 15 15 15 14 13 13 14 13 13 12 12 11 10 9 8 7 6 5 4 2 2 1 1 1 2 2 3 3 3 3 2 2 2 2 2 2 2 2 2 3 3 4 6 8 10 12 14 15 17 18 18 17 16 15 14 14 14 14 15 13 10 8 8 7 7
4 4 4 3 3 4 4 4 5 7 9 10 10 9 9 10 11 11 12 12 13 12 12 13 13 14 14 14 13 12 11 11 10 8 7 6 5 4 3 2 1 1 0 1 2 2 3 3 2 2 2 2 2 2 2 2 2 2 2 3 4 6 8 10 12 14 16 18 19 19 18 17 15 14 14 14 15 14 12 9 7 7 7 7 7
1 2 2 3 4 4 4 3 3 4 7 10 10 9 8 10 10 10 10 11 11 11 12 12 13 13 13 13 12 11 10 9 8 7 6 6 4 3 2 2 1 1 1 1 1 2 2 2 1 1 2 2 2 1 2 3 3 2 3 4 6 8 10 12 14 17 19 20 21 19 17 15 14 13 14 15 14 12 9 6 6 6 6 6 7
1 2 3 4 5 6 6 5 4 4 7 9 8 8 9 9 10 9 9 10 11 12 12 12 12 12 12 11 10 10 9 8 7 6 5 4 3 2 1 1 1 0 1 1 1 1 2 2 2 2 3 4 3 3 4 5 4 4 5 7 8 10 12 15 17 19 20 21 20 18 15 14 14 14 14 13 11 8 7 6 6 6 6 7 8
Wind_Direction
208 210 212 214 217 220 225 226 225 226 230 235 238 239 240 241 241 244 248 250 249 247 248 248 248 247 248 251 252 252 250 250 253 256 258 258 256 255 258 261 263 264 262 263 261 261 265 266 269 278 281 276 274 270 269 273 279 282 280 276 268 260 259 247 238 269 293 305 316 324 332 335 341 344 338 336 339 343 344 342 340 340 341 342 345
209 210 212 213 215 219 222 224 224 225 229 234 237 238 239 241 241 245 249 250 248 246 246 248 248 248 249 250 250 250 249 248 249 252 255 255 255 256 257 259 262 263 264 266 265 262 264 263 262 270 277 275 272 273 278 281 284 286 285 281 279 277 274 267 256 263 285 301 311 319 328 333 335 339 338 338 342 342 338 336 336 338 340 342 345
210 210 211 212 215 217 220 222 224 226 229 232 236 238 239 241 242 245 248 249 247 245 247 249 250 250 249 248 250 250 249 248 248 250 254 255 256 256 256 257 261 263 264 267 268 268 266 261 258 261 268 270 269 269 274 278 280 284 286 284 286 291 288 279 267 261 275 292 305 314 322 325 327 333 334 332 336 336 331 331 331 333 336 340 345
209 209 210 212 214 215 217 221 225 228 230 232 235 237 238 240 243 244 246 249 248 247 248 250 250 251 249 248 251 251 248 248 248 250 254 255 257 259 258 258 261 263 265 266 266 268 267 261 255 255 260 264 264 266 269 273 277 282 286 286 286 290 293 289 279 270 271 282 296 306 312 313 316 323 324 320 322 325 325 326 327 329 333 338 345
207 207 209 211 212 214 216 220 224 228 230 232 234 237 238 240 243 244 245 248 249 249 249 249 249 249 248 248 248 247 245 245 247 249 251 252 255 258 260 262 263 264 266 265 263 262 264 262 257 257 262 265 266 270 273 276 280 284 284 285 286 287 292 293 287 280 275 278 287 296 301 303 306 312 315 316 319 321 323 325 325 328 333 338 344
205 207 209 209 212 214 215 219 223 227 231 232 235 237 237 239 242 245 247 249 249 250 248 248 250 248 247 247 247 245 244 245 248 250 250 251 252 254 255 258 262 264 266 266 262 260 263 263 260 258 262 268 270 272 276 279 280 280 279 281 283 284 287 286 280 275 274 275 280 286 293 299 301 305 313 318 320 322 326 327 327 331 336 338 342
202 205 208 209 212 214 215 218 222 225 229 232 236 238 238 239 242 246 250 249 247 247 248 250 251 249 248 248 248 248 248 247 248 249 251 252 252 252 251 251 255 259 262 264 262 260 262 261 258 257 258 262 267 270 274 278 278 278 278 279 279 275 276 277 267 261 263 266 271 279 287 294 298 303 313 320 322 327 334 333 330 333 337 338 340
200 202 205 206 208 209 211 216 219 222 226 230 234 239 241 241 243 247 250 250 248 248 249 250 249 247 247 248 249 250 249 248 249 251 253 255 255 254 251 248 249 252 256 260 260 259 259 257 257 258 258 260 265 269 274 276 276 276 274 274 274 267 266 271 260 249 249 255 264 275 283 290 300 309 318 326 329 333 338 335 328 330 334 335 338
199 201 202 202 202 205 211 218 222 226 229 232 234 237 242 245 246 247 250 252 253 252 251 250 248 245 244 247 250 250 249 248 250 253 255 256 257 256 254 250 248 248 252 256 260 261 260 259 260 260 258 259 262 267 271 270 269 271 272 272 272 267 267 269 257 247 250 256 266 279 288 295 307 317 322 328 332 330 333 333 328 330 331 331 336
198 199 200 200 200 205 212 218 222 226 229 232 233 233 238 246 249 249 249 251 254 255 254 250 246 245 244 245 246 246 246 247 250 253 255 255 256 257 257 255 250 249 251 254 259 263 262 261 260 258 255 256 257 259 263 263 263 268 274 274 271 270 272 272 265 261 264 267 274 287 295 300 310 319 319 322 328 327 330 332 329 330 332 332 335
201 202 202 202 203 208 215 220 223 225 226 230 233 234 237 242 249 254 254 253 254 255 255 250 246 244 243 243 243 244 245 247 249 252 253 252 252 254 257 257 252 251 252 251 255 262 264 264 261 257 254 255 256 255 256 259 261 267 272 270 268 270 271 272 272 270 269 270 277 290 296 299 307 315 315 317 323 325 326 329 327 327 332 332 327
203 203 206 212 214 214 218 222 224 224 223 226 231 233 232 233 240 248 252 253 252 252 252 249 244 241 239 239 240 243 247 249 249 251 252 249 249 252 255 253 251 252 254 254 255 258 262 265 261 255 255 256 256 257 257 259 259 260 262 262 264 267 267 267 268 268 268 270 277 288 293 297 303 309 314 317 319 320 321 322 323 324 327 324 315
199 199 211 223 221 216 217 218 218 220 223 224 222 217 214 217 224 232 238 244 245 242 241 240 236 234 235 235 238 243 247 248 248 249 249 247 247 251 251 249 250 252 255 258 258 258 263 267 261 254 255 258 258 256 256 256 251 249 251 253 260 265 263 260 258 260 266 270 275 284 289 294 300 304 310 314 313 316 316 316 319 319 320 321 317
201 204 216 225 220 212 212 213 215 220 221 218 216 214 215 218 221 224 227 231 232 227 226 229 231 231 234 238 242 245 244 243 244 246 245 245 246 246 245 248 252 253 253 255 255 255 261 266 264 261 260 259 255 249 246 245 241 239 243 246 254 262 259 254 252 256 263 268 274 281 286 292 295 296 301 304 306 311 312 310 314 316 319 326 325
181 190 205 216 214 207 205 208 217 222 220 214 212 212 215 218 218 219 220 221 225 226 224 228 233 235 237 242 244 242 239 238 241 242 243 244 244 243 245 250 255 257 257 257 256 255 254 253 262 271 267 252 241 238 236 236 236 239 246 253 257 257 256 254 253 257 262 266 273 281 285 287 288 293 301 304 306 310 305 302 310 319 329 339 337
148 160 180 196 199 199 204 211 219 224 224 220 214 210 213 213 210 223 233 231 227 223 220 227 233 234 235 238 238 239 242 242 242 241 242 244 244 245 248 251 253 256 258 258 259 261 257 249 252 266 263 244 231 232 233 234 240 247 253 257 256 253 253 254 255 259 264 268 274 278 278 278 285 298 309 314 320 323 312 314 1 14 1 0 354
125 138 150 155 165 177 193 212 228 234 230 217 208 216 228 235 237 243 247 243 233 229 229 228 226 227 229 230 232 239 245 244 242 241 243 245 247 248 251 250 249 251 250 248 251 258 261 254 247 250 250 239 228 226 229 234 242 250 253 254 251 249 247 247 250 255 261 265 271 276 280 283 285 292 313 350 17 28 38 42 36 20 15 19 2
117 125 123 121 144 177 194 210 234 251 252 235 226 243 251 257 255 252 249 244 238 236 231 217 213 225 236 235 231 236 242 241 242 245 246 247 249 250 253 251 249 249 246 242 244 249 256 256 247 239 238 235 227 222 227 235 243 248 252 252 249 246 243 244 247 250 253 261 274 285 291 287 264 207 112 61 49 41 39 37 25 16 28 35 13
109 115 117 120 123 126 147 173 180 206 231 212 209 221 217 220 230 233 232 228 222 217 215 212 218 232 242 237 228 229 235 236 240 247 250 251 252 251 252 252 248 246 242 237 235 234 236 239 233 226 227 230 229 226 228 234 241 246 249 249 248 247 246 248 253 257 262 271 278 272 228 167 147 132 104 73 61 48 42 41 33 30 39 41 29
105 114 123 128 123 114 105 96 85 77 82 111 131 152 177 194 207 219 226 225 223 221 221 226 228 222 219 219 218 223 230 233 241 254 257 258 263 260 255 251 248 246 240 229 216 208 208 211 211 213 218 224 228 232 233 235 239 240 240 241 244 246 248 251 260 268 275 280 249 178 152 140 126 110 94 79 69 57 48 45 39 37 41 41 41
99 108 116 119 115 106 94 84 77 65 58 76 98 111 134 179 231 252 244 222 219 218 208 203 203 200 196 193 196 211 227 229 243 268 277 274 278 274 262 261 262 256 247 233 215 204 203 205 206 207 209 212 219 226 230 233 235 235 236 238 240 244 247 249 252 253 236 183 156 147 139 129 114 98 85 72 65 58 48 42 37 36 38 38 43
85 89 97 102 103 99 92 83 76 68 64 74 88 95 103 112 123 185 205 191 182 178 181 182 171 159 157 150 135 138 160 192 226 276 307 308 305 298 293 314 312 283 254 232 218 209 202 199 200 204 206 208 212 215 219 229 234 234 237 239 242 244 241 235 229 210 181 159 146 138 131 122 108 89 76 65 58 48 38 37 38 37 42 45 53
83 87 94 97 98 100 100 94 85 78 76 82 87 87 88 91 93 101 117 123 120 123 141 157 143 126 120 114 107 103 94 89 73 6 13 20 13 359 360 7 1 352 354 163 185 192 191 190 195 201 206 208 210 212 217 228 235 239 242 243 244 239 225 212 202 183 165 153 141 131 122 112 100 84 69 58 47 39 32 32 35 39 48 55 65
92 97 102 104 104 105 107 105 100 92 83 81 84 85 84 85 84 89 101 107 109 113 124 138 132 116 108 102 92 82 70 63 58 48 44 49 48 38 35 36 33 27 26 37 85 329 291 228 211 213 215 213 211 208 210 224 234 240 242 239 232 220 203 189 177 165 154 145 135 121 109 100 88 76 64 50 36 30 25 24 31 44 59 63 64
92 96 99 102 105 107 107 104 100 94 87 82 82 86 91 93 95 101 108 105 108 119 125 127 123 111 103 94 81 74 70 65 61 55 49 49 48 45 42 40 40 39 30 18 6 349 328 305 282 261 247 238 227 212 204 218 233 233 229 221 211 199 184 170 164 157 147 138 130 118 108 98 84 74 62 37 15 14 21 28 35 45 56 56 47
95 96 96 97 101 103 104 102 99 95 91 86 84 85 86 90 95 106 118 121 124 128 124 118 112 101 91 84 75 70 66 59 53 44 33 27 24 23 24 25 25 24 18 8 359 347 333 321 303 282 269 257 238 217 202 218 229 218 209 204 198 190 177 166 159 151 140 133 127 117 106 97 87 78 56 26 25 36 41 42 39 40 40 25 14
94 98 101 104 104 102 102 102 98 93 88 83 82 81 82 87 90 92 102 118 133 139 136 127 118 106 93 85 71 56 43 33 24 15 7 0 357 355 355 356 357 357 358 2 1 353 339 325 306 289 279 263 238 222 222 232 223 212 202 196 191 182 172 165 160 155 147 142 136 124 111 104 96 88 73 59 59 56 48 40 38 37 32 19 17
90 93 98 105 105 101 102 102 98 92 85 77 74 75 78 86 90 88 89 100 120 138 142 135 126 121 112 89 53 21 9 359 350 347 346 343 342 342 343 348 353 355 358 4 9 11 8 1 340 296 277 259 233 223 220 207 194 186 178 172 169 166 164 161 157 153 150 145 136 125 118 116 109 104 96 82 70 56 39 31 33 32 25 23 29
88 91 92 96 98 97 95 88 80 81 86 83 78 76 77 80 87 92 94 94 98 109 117 113 107 106 107 71 8 346 339 336 333 331 330 332 336 338 341 350 356 0 5 10 16 27 35 45 59 64 56 158 178 183 178 162 151 149 149 150 152 154 155 152 144 137 133 129 123 120 121 120 117 116 106 86 73 60 40 32 35 33 30 34 37
87 93 94 97 100 97 85 75 73 77 81 83 82 82 83 85 89 94 98 99 96 93 93 91 85 72 56 40 22 10 357 346 338 331 327 330 338 342 345 350 354 0 10 17 25 38 53 64 68 69 76 89 107 125 132 131 130 132 135 138 141 141 138 131 125 121 120 118 119 121 123 121 120 118 109 95 89 88 75 63 57 48 42 41 40
88 95 94 92 90 79 65 69 80 87 89 89 90 91 92 93 93 94 98 100 100 94 87 82 76 70 65 61 54 44 31 18 10 5 2 2 358 354 353 356 5 16 24 32 44 56 67 71 69 69 76 81 87 96 105 111 115 119 123 126 126 124 120 117 117 121 122 122 125 127 127 126 125 124 120 115 113 107 95 83 71 59 53 50 44
109 152 135 115 99 81 234 221 152 130 125 122 119 113 108 103 99 101 105 106 105 101 94 86 82 81 78 72 64 57 50 43 39 36 36 37 34 24 17 19 28 36 42 58 72 77 77 74 70 69 74 76 79 86 93 98 102 107 110 109 108 109 110 113 119 126 126 126 128 129 129 130 132 130 127 121 115 104 90 78 70 62 58 54 49
270 230 208 196 202 213 219 225 222 197 181 179 183 178 156 129 118 120 120 117 114 110 101 94 93 92 86 78 68 60 54 50 46 44 46 50 51 49 47 51 58 65 74 85 86 82 79 77 73 71 74 76 80 85 90 93 97 100 100 100 100 102 106 111 118 120 117 116 118 118 119 123 126 124 119 112 104 94 80 70 64 58 52 49 45
232 219 221 231 235 232 231 234 233 226 205 193 201 211 218 236 235 198 174 157 145 134 119 108 106 101 93 82 68 57 50 45 43 44 47 53 58 59 65 76 85 89 93 95 90 82 79 77 75 74 76 78 81 86 88 91 94 95 95 97 99 102 106 111 112 108 107 108 109 108 107 108 108 107 104 98 89 80 71 64 56 50 47 43 36
257 231 219 234 240 236 246 264 262 253 240 210 196 200 213 259 271 246 222 208 196 185 167 143 131 126 109 86 66 50 40 36 37 38 41 51 59 64 76 88 93 93 93 92 90 85 82 80 79 78 78 79 80 82 84 86 88 91 93 96 99 101 103 104 103 102 102 100 98 97 97 96 92 88 86 82 74 65 57 50 44 39 34 27 19
260 233 223 241 257 262 276 290 282 262 242 224 215 211 207 242 280 252 232 224 215 207 198 181 165 171 179 85 52 35 23 19 20 21 27 36 40 49 83 96 97 95 92 90 90 88 86 84 83 82 81 80 79 79 80 81 83 85 88 91 94 95 94 93 93 94 94 91 89 88 87 85 80 74 71 69 64 57 47 37 30 24 18 12 6
257 240 241 259 271 273 280 289 290 265 229 221 221 225 222 208 204 218 220 221 219 215 208 196 184 185 193 138 46 28 15 11 9 11 20 28 33 61 96 103 102 99 95 93 92 91 88 86 84 83 82 81 80 78 77 78 80 82 85 88 89 90 90 90 89 87 86 85 82 76 72 68 63 56 54 54 51 45 35 25 17 11 7 4 358
256 248 254 271 278 277 280 285 281 272 261 247 238 237 241 245 243 229 219 216 221 223 215 203 192 188 183 147 65 26 10 11 17 27 41 50 65 87 99 102 100 98 96 93 92 91 88 85 83 81 80 79 77 75 74 76 79 82 84 87 90 93 93 90 85 81 78 74 70 64 58 54 48 40 34 31 28 22 15 8 3 358 354 350 346
259 253 259 272 276 272 275 279 277 276 279 282 279 273 269 263 244 222 217 214 215 220 213 202 192 183 169 140 119 65 36 69 81 82 80 82 88 94 97 97 97 97 96 93 90 88 85 83 80 77 75 73 70 69 69 72 77 81 82 84 88 89 86 79 72 68 63 59 56 51 45 42 39 34 27 21 15 8 1 355 350 347 341 336 334
263 259 263 271 273 269 269 272 275 277 279 285 293 289 271 248 223 210 209 205 202 206 203 193 183 174 163 155 158 159 132 118 116 114 109 104 102 99 97 97 96 94 92 90 87 83 81 80 76 71 68 65 62 62 63 64 68 72 74 75 77 78 75 69 62 57 53 49 45 40 34 28 23 18 14 8 359 351 346 340 336 334 331 328 328
255 256 259 265 269 271 272 271 271 271 270 274 279 274 251 235 224 214 206 201 198 195 186 178 172 170 173 174 170 165 148 134 129 126 120 114 110 106 101 98 95 93 90 86 81 75 72 69 64 60 57 56 56 58 59 58 61 65 68 72 78 77 74 67 58 50 44 37 30 23 17 12 4 359 356 351 344 339 337 335 333 332 333 333 335
250 251 253 254 256 264 272 273 270 266 262 258 256 249 239 231 224 216 205 198 195 186 174 169 170 177 179 173 169 165 153 142 137 132 127 122 118 112 106 102 97 91 85 77 68 59 48 43 43 42 42 44 46 46 46 51 58 67 77 82 81 76 69 62 55 46 38 28 20 11 4 358 352 347 345 343 341 340 340 340 340 340 339 339 340
254 253 254 255 257 260 266 269 266 260 256 251 243 235 228 222 217 214 204 189 185 185 179 176 178 180 170 163 165 163 152 144 141 136 131 128 123 116 112 107 99 91 82 71 57 38 20 16 22 26 28 31 31 26 28 38 49 59 71 76 72 67 60 51 43 36 27 18 11 2 353 347 343 340 339 340 342 343 343 342 341 340 338 336 336
263 261 260 261 261 260 261 262 259 256 256 249 235 223 215 208 202 197 188 179 180 187 189 185 183 181 173 169 172 171 159 149 145 140 136 134 129 122 118 113 106 99 91 73 53 28 5 3 9 14 18 24 27 24 27 40 51 55 60 62 59 54 46 35 27 20 13 5 358 352 346 343 340 338 338 339 340 340 339 338 337 334 331 330 329
271 269 266 262 259 258 259 257 254 251 246 233 219 210 204 201 198 195 190 184 184 189 191 186 181 181 179 176 176 175 166 158 154 149 143 139 133 127 125 121 114 108 95 72 52 22 5 6 10 11 14 25 38 46 64 90 90 78 64 56 51 45 37 28 18 9 1 356 352 348 345 342 340 338 338 338 338 335 333 332 332 328 324 322 323
274 274 268 259 254 255 255 246 236 229 219 209 205 202 202 206 209 206 198 190 187 188 188 184 179 179 179 177 176 174 169 164 160 154 147 144 141 137 134 128 117 104 84 63 40 14 4 6 8 8 10 17 54 100 121 120 105 90 75 61 51 42 32 22 10 1 357 354 350 347 343 339 338 338 337 335 334 332 331 330 328 323 318 316 318
284 280 269 255 248 246 243 237 233 233 233 226 220 217 215 211 205 196 188 184 180 179 179 178 177 179 179 177 176 174 169 166 163 157 152 150 148 144 142 138 124 104 63 34 21 7 4 2 3 12 31 75 121 128 127 115 95 84 73 58 47 34 21 12 3 357 353 349 345 343 339 336 335 335 334 334 334 332 329 327 324 318 314 314 317
292 282 271 258 248 245 249 251 251 253 255 252 241 228 216 204 194 185 181 178 176 175 177 179 180 180 179 177 175 173 169 165 161 158 156 156 154 151 152 147 131 104 47 22 16 11 10 3 352 356 33 75 101 124 123 98 78 68 51 39 32 14 4 359 354 349 346 343 341 339 336 333 333 333 334 335 333 328 325 324 320 315 315 317 318
284 272 264 254 246 247 255 266 269 255 236 220 211 206 201 194 188 183 181 180 177 175 177 178 177 175 174 171 169 167 165 163 161 159 159 159 159 161 165 166 162 176 305 356 359 360 4 360 341 336 16 47 74 112 99 58 45 34 11 8 3 356 354 352 347 343 342 341 340 338 335 333 333 335 334 332 330 328 327 324 318 315 315 315 312
243 251 265 276 282 277 271 278 287 254 221 210 209 209 200 187 181 181 183 181 175 171 170 170 169 169 170 168 166 165 165 165 166 166 166 166 167 170 176 185 197 223 261 308 340 346 349 351 346 350 7 19 37 54 23 7 357 345 340 344 346 347 348 346 342 340 339 338 337 335 333 333 335 335 333 331 332 334 334 325 313 310 309 306 304
290 305 305 299 290 276 265 263 255 234 225 224 222 215 200 189 186 186 182 175 167 164 164 165 165 167 168 168 169 172 172 171 170 170 170 174 180 184 189 201 211 222 250 278 295 319 341 357 13 12 1 358 2 6 359 349 336 326 327 332 337 341 343 341 337 336 336 335 334 332 332 333 335 334 333 335 338 337 330 317 309 308 307 306 306